• In Germany
  • List of Countries
  • For 7 days
  • Water Temperature
  • Satellite Maps
  • Weather Map
  • Weather Widgets
  • user-avatar
    Login

    Hourly Weather Ghazni

    Today, 18 February, Sunday

    Time Temperature Precipitation Wind Pressure Humidity
    00:00 -2°C° 0 mm 2 mps 582 mmHg 45%
    01:00 -2°C° 0 mm 2 mps 582 mmHg 45%
    02:00 -2°C° 0 mm 2 mps 582 mmHg 45%
    03:00 -2°C° 0 mm 2 mps 582 mmHg 46%
    04:00 -2°C° 0 mm 2 mps 582 mmHg 48%
    05:00 -2°C° 0 mm 2 mps 581 mmHg 49%
    06:00 -2°C° 0 mm 2 mps 581 mmHg 51%
    07:00 -2°C° 0 mm 2 mps 582 mmHg 52%
    08:00 -2°C° 0 mm 2 mps 582 mmHg 54%
    09:00 +1°C° 0 mm 2 mps 582 mmHg 55%
    10:00 +3°C° 0 mm 2 mps 583 mmHg 56%
    11:00 +5°C° 0 mm 1 mps 583 mmHg 57%
    12:00 +6°C° 0 mm 1 mps 583 mmHg 58%
    13:00 +7°C° 0 mm 1 mps 583 mmHg 59%
    14:00 +7°C° 0 mm 1 mps 583 mmHg 60%
    15:00 +7°C° 0 mm 1 mps 582 mmHg 61%
    16:00 +7°C° 0 mm 1 mps 582 mmHg 62%
    17:00 +6°C° 0 mm 1 mps 582 mmHg 63%
    18:00 +5°C° 0 mm 1 mps 582 mmHg 65%
    19:00 +4°C° 0 mm 1 mps 582 mmHg 66%
    20:00 +2°C° 0 mm 2 mps 582 mmHg 67%
    21:00 +2°C° 0 mm 2 mps 582 mmHg 68%
    22:00 +2°C° 0 mm 2 mps 582 mmHg 68%
    23:00 +2°C° 0 mm 2 mps 583 mmHg 69%

    Tomorrow, 19 February, Monday

    Time Temperature Precipitation Wind Pressure Humidity
    00:00 +2°C° 0 mm 2 mps 583 mmHg 69%
    01:00 +2°C° 0 mm 2 mps 583 mmHg 70%
    02:00 +2°C° 0 mm 2 mps 583 mmHg 70%
    03:00 +2°C° 0 mm 2 mps 583 mmHg 70%
    04:00 +2°C° 0 mm 2 mps 582 mmHg 70%
    05:00 +3°C° 0 mm 1 mps 582 mmHg 70%
    06:00 +4°C° 0 mm 1 mps 583 mmHg 69%
    07:00 +4°C° 0 mm 1 mps 583 mmHg 69%
    08:00 +4°C° 0 mm 1 mps 584 mmHg 68%
    09:00 +5°C° 0 mm 1 mps 584 mmHg 68%
    10:00 +7°C° 0 mm 1 mps 585 mmHg 68%
    11:00 +8°C° 0 mm 1 mps 585 mmHg 68%
    12:00 +9°C° 0 mm 1 mps 585 mmHg 66%
    13:00 +9°C° 0 mm 1 mps 585 mmHg 64%
    14:00 +10°C° 0 mm 1 mps 585 mmHg 63%
    15:00 +10°C° 0 mm 1 mps 584 mmHg 62%
    16:00 +9°C° 0 mm 1 mps 584 mmHg 61%
    17:00 +9°C° 0 mm 1 mps 584 mmHg 60%
    18:00 +8°C° 0 mm 1 mps 584 mmHg 62%
    19:00 +7°C° 0 mm 1 mps 584 mmHg 63%
    20:00 +5°C° 0 mm 2 mps 584 mmHg 65%
    21:00 +5°C° 0 mm 2 mps 584 mmHg 65%
    22:00 +5°C° 0 mm 2 mps 584 mmHg 64%
    23:00 +4°C° 0 mm 2 mps 584 mmHg 64%

    Day after tomorrow, 20 February, Tuesday

    Time Temperature Precipitation Wind Pressure Humidity
    00:00 +4°C° 0 mm 2 mps 584 mmHg 65%
    01:00 +4°C° 0 mm 2 mps 584 mmHg 65%
    02:00 +3°C° 0 mm 2 mps 584 mmHg 66%
    03:00 +3°C° 0 mm 2 mps 583 mmHg 67%
    04:00 +3°C° 0 mm 2 mps 583 mmHg 67%
    05:00 +3°C° 0 mm 2 mps 583 mmHg 68%
    06:00 +4°C° 0.1 mm 1 mps 583 mmHg 68%
    07:00 +4°C° 0.1 mm 1 mps 583 mmHg 68%
    08:00 +5°C° 0.1 mm 1 mps 584 mmHg 68%
    09:00 +5°C° 0.3 mm 2 mps 584 mmHg 66%
    10:00 +6°C° 0.3 mm 2 mps 585 mmHg 64%
    11:00 +7°C° 0.3 mm 2 mps 585 mmHg 62%
    12:00 +8°C° 0.2 mm 3 mps 585 mmHg 61%
    13:00 +8°C° 0.2 mm 4 mps 585 mmHg 60%
    14:00 +9°C° 0.2 mm 5 mps 585 mmHg 59%
    15:00 +9°C° 0.1 mm 5 mps 584 mmHg 61%
    16:00 +8°C° 0.1 mm 5 mps 584 mmHg 63%
    17:00 +8°C° 0.1 mm 5 mps 583 mmHg 66%
    18:00 +7°C° 0.3 mm 5 mps 583 mmHg 69%
    19:00 +6°C° 0.3 mm 4 mps 583 mmHg 73%
    20:00 +5°C° 0.3 mm 4 mps 583 mmHg 77%
    21:00 +4°C° 0.1 mm 3 mps 583 mmHg 79%
    22:00 +4°C° 0.1 mm 2 mps 583 mmHg 82%
    23:00 +5°C° 0.1 mm 1 mps 582 mmHg 84%

    21 February, Wednesday

    Time Temperature Precipitation Wind Pressure Humidity
    00:00 +4°C° 0.1 mm 1 mps 582 mmHg 85%
    01:00 +4°C° 0.1 mm 1 mps 582 mmHg 85%
    02:00 +4°C° 0.1 mm 1 mps 582 mmHg 86%
    03:00 +4°C° 0.1 mm 1 mps 582 mmHg 86%
    04:00 +3°C° 0.1 mm 1 mps 581 mmHg 86%
    05:00 +3°C° 0.1 mm 1 mps 581 mmHg 87%
    06:00 +3°C° 0 mm 1 mps 582 mmHg 86%
    07:00 +3°C° 0 mm 1 mps 582 mmHg 85%
    08:00 +3°C° 0 mm 1 mps 583 mmHg 84%
    09:00 +4°C° 0 mm 1 mps 583 mmHg 79%
    10:00 +6°C° 0 mm 1 mps 584 mmHg 73%
    11:00 +7°C° 0 mm 1 mps 584 mmHg 67%
    12:00 +8°C° 0 mm 1 mps 584 mmHg 63%
    13:00 +8°C° 0 mm 1 mps 584 mmHg 59%
    14:00 +9°C° 0 mm 1 mps 584 mmHg 55%
    15:00 +9°C° 0 mm 1 mps 584 mmHg 53%
    16:00 +9°C° 0 mm 1 mps 583 mmHg 52%
    17:00 +9°C° 0 mm 1 mps 583 mmHg 50%
    18:00 +8°C° 0 mm 1 mps 583 mmHg 52%
    19:00 +7°C° 0 mm 1 mps 583 mmHg 54%
    20:00 +6°C° 0 mm 1 mps 584 mmHg 57%
    21:00 +5°C° 0 mm 1 mps 584 mmHg 56%
    22:00 +5°C° 0 mm 1 mps 584 mmHg 56%
    23:00 +4°C° 0 mm 1 mps 584 mmHg 55%

    22 February, Thursday

    Time Temperature Precipitation Wind Pressure Humidity
    00:00 +4°C° 0 mm 1 mps 583 mmHg 54%
    01:00 +4°C° 0 mm 1 mps 583 mmHg 54%
    02:00 +2°C° 0 mm 2 mps 583 mmHg 53%
    03:00 +2°C° 0 mm 2 mps 583 mmHg 53%
    04:00 +2°C° 0 mm 2 mps 582 mmHg 52%
    05:00 +1°C° 0 mm 2 mps 582 mmHg 52%
    06:00 +1°C° 0 mm 2 mps 582 mmHg 50%
    07:00 +3°C° 0 mm 1 mps 582 mmHg 49%
    08:00 +3°C° 0 mm 1 mps 583 mmHg 47%
    09:00 +4°C° 0 mm 1 mps 583 mmHg 45%
    10:00 +6°C° 0 mm 1 mps 584 mmHg 43%
    11:00 +7°C° 0 mm 1 mps 584 mmHg 41%
    12:00 +8°C° 0 mm 1 mps 584 mmHg 41%
    13:00 +8°C° 0 mm 2 mps 584 mmHg 40%
    14:00 +9°C° 0 mm 2 mps 583 mmHg 40%
    15:00 +9°C° 0 mm 2 mps 583 mmHg 39%
    16:00 +9°C° 0 mm 2 mps 583 mmHg 39%
    17:00 +9°C° 0 mm 2 mps 583 mmHg 38%
    18:00 +8°C° 0 mm 2 mps 583 mmHg 40%
    19:00 +8°C° 0 mm 1 mps 583 mmHg 42%
    20:00 +7°C° 0 mm 1 mps 583 mmHg 45%
    21:00 +6°C° 0 mm 1 mps 583 mmHg 46%
    22:00 +6°C° 0 mm 1 mps 583 mmHg 48%
    23:00 +5°C° 0 mm 1 mps 583 mmHg 50%

    23 February, Friday

    Time Temperature Precipitation Wind Pressure Humidity
    00:00 +5°C° 0 mm 1 mps 583 mmHg 51%
    01:00 +5°C° 0 mm 1 mps 583 mmHg 53%
    02:00 +3°C° 0 mm 2 mps 582 mmHg 54%
    03:00 +3°C° 0 mm 2 mps 582 mmHg 56%
    04:00 +3°C° 0 mm 2 mps 582 mmHg 57%
    05:00 +2°C° 0 mm 2 mps 582 mmHg 58%
    06:00 +3°C° 0 mm 2 mps 583 mmHg 58%
    07:00 +3°C° 0 mm 2 mps 583 mmHg 58%
    08:00 +3°C° 0 mm 2 mps 584 mmHg 58%
    09:00 +5°C° 0 mm 2 mps 584 mmHg 56%
    10:00 +6°C° 0 mm 2 mps 585 mmHg 54%
    11:00 +7°C° 0 mm 2 mps 585 mmHg 52%
    12:00 +8°C° 0 mm 2 mps 585 mmHg 52%
    13:00 +9°C° 0 mm 2 mps 585 mmHg 52%
    14:00 +10°C° 0 mm 2 mps 585 mmHg 51%
    15:00 +10°C° 0 mm 2 mps 585 mmHg 50%
    16:00 +10°C° 0 mm 2 mps 584 mmHg 48%
    17:00 +10°C° 0 mm 2 mps 584 mmHg 47%
    18:00 +9°C° 0 mm 2 mps 584 mmHg 50%
    19:00 +8°C° 0 mm 2 mps 584 mmHg 54%
    20:00 +7°C° 0 mm 2 mps 584 mmHg 57%
    21:00 +7°C° 0.2 mm 2 mps 584 mmHg 61%
    22:00 +6°C° 0.2 mm 2 mps 584 mmHg 65%
    23:00 +6°C° 0.2 mm 2 mps 584 mmHg 69%
    Show more